Buckland, AK

12:32 PM AKDT on August 26, 2016 (GMT -0800)
Buckland

Weather History for PABL - July, 2013

Change the Weather History Date:

Saturday, July 6, 2013

  Actual Average (PASK) Record (PASK)
Temperature  
Mean Temperature 53 °F -  
Max Temperature 60 °F 60 °F 80 °F (2014)
Min Temperature 46 °F 48 °F 46 °F (2000)
Degree Days  
Heating Degree Days 12    
Growing Degree Days 3 (Base 50)    
Moisture  
Dew Point 47 °F    
Average Humidity 83    
Maximum Humidity 93    
Minimum Humidity 59    
Precipitation  
Precipitation 0.02 in - - ()
Sea Level Pressure  
Sea Level Pressure 29.81 in    
Wind  
Wind Speed 3 mph (ESE)    
Max Wind Speed 8 mph    
Max Gust Speed -    
Visibility 10 miles    
Events      
Averages and records for this station are not official NWS values.
T = Trace of Precipitation, MM = Missing Value Source: NWS Daily Summary

Daily Weather History Graph

Daily Weather History Graph

Search for Another Location

Airport or City:

Trip Planner

Search our weather history database for the weather conditions in past years. The results will help you decide how hot, cold, wet, or windy it might be!

Date:

Astronomy

Jul. 06, 2013 Rise Set
Actual Time 3:41 AM AKDT 1:53 AM AKDT
Civil Twilight Sun does not set Sun does not set
Nautical Twilight Sun does not set Sun does not set
Astronomical Twilight Sun does not set Sun does not set
Moon 3:44 AM AKDT (7/6) 11:31 PM AKDT (7/6)
Length of Visible Light 24h 00m
Length of Day
22h 12m
Waning Crescent, 2% of the Moon is Illuminated
Jul 6
Waning Crescent
Jul 7
New
Jul 15
First Quarter
Jul 22
Full
Jul 29
Last Quarter

Hourly Weather History & Observations

Time (AKDT) Temp. Dew Point Humidity Pressure Visibility Wind Dir Wind Speed Gust Speed Precip Events Conditions
12:16 AM 48.2 °F 46.4 °F 93% 29.91 in 10.0 mi ESE 5.8 mph - N/A   Overcast
12:36 AM 48.2 °F 46.4 °F 93% 29.91 in 10.0 mi ESE 6.9 mph - N/A   Overcast
12:56 AM 48.2 °F 46.4 °F 93% 29.91 in 10.0 mi ESE 6.9 mph - N/A   Overcast
1:16 AM 48.2 °F 46.4 °F 93% 29.91 in 10.0 mi SE 6.9 mph - N/A   Overcast
1:36 AM 48.2 °F 44.6 °F 87% 29.91 in 10.0 mi ESE 5.8 mph - N/A   Overcast
1:56 AM 48.2 °F 44.6 °F 87% 29.91 in 10.0 mi SE 4.6 mph - N/A   Overcast
2:16 AM 48.2 °F 44.6 °F 87% 29.91 in 10.0 mi SE 4.6 mph - N/A   Overcast
2:36 AM 48.2 °F 44.6 °F 87% 29.91 in 10.0 mi Calm Calm - N/A   Overcast
2:56 AM 48.2 °F 46.4 °F 93% 29.90 in 10.0 mi Calm Calm - N/A   Overcast
3:16 AM 48.2 °F 44.6 °F 87% 29.90 in 10.0 mi Calm Calm - N/A   Overcast
3:36 AM 46.4 °F 44.6 °F 93% 29.90 in 10.0 mi Calm Calm - N/A   Overcast
3:56 AM 48.2 °F 44.6 °F 87% 29.89 in 9.0 mi Calm Calm - N/A   Overcast
4:16 AM 48.2 °F 46.4 °F 93% 29.89 in 10.0 mi Calm Calm - N/A   Overcast
4:36 AM 48.2 °F 46.4 °F 93% 29.89 in 10.0 mi Calm Calm - N/A   Overcast
4:56 AM 48.2 °F 44.6 °F 87% 29.89 in 10.0 mi SE 3.5 mph - N/A   Mostly Cloudy
5:16 AM 48.2 °F 44.6 °F 87% 29.88 in 10.0 mi Calm Calm - 0.01 in   Overcast
5:36 AM 46.4 °F 44.6 °F 93% 29.88 in 6.0 mi Calm Calm - 0.01 in   Overcast
5:56 AM 48.2 °F 46.4 °F 93% 29.87 in 9.0 mi Calm Calm - 0.02 in   Mostly Cloudy
6:16 AM 48.2 °F 46.4 °F 93% 29.87 in 10.0 mi Calm Calm - N/A   Overcast
6:36 AM 48.2 °F 46.4 °F 93% 29.86 in 10.0 mi Calm Calm - N/A   Mostly Cloudy
6:56 AM 48.2 °F 46.4 °F 93% 29.86 in 10.0 mi Calm Calm - N/A   Overcast
7:16 AM 48.2 °F 46.4 °F 93% 29.86 in 10.0 mi Calm Calm - N/A   Overcast
7:36 AM 48.2 °F 46.4 °F 93% 29.86 in 10.0 mi Calm Calm - N/A   Overcast
7:56 AM 48.2 °F 46.4 °F 93% 29.85 in 10.0 mi Calm Calm - N/A   Overcast
8:16 AM 48.2 °F 46.4 °F 93% 29.85 in 10.0 mi East 3.5 mph - N/A   Overcast
8:36 AM 48.2 °F 46.4 °F 93% 29.85 in 10.0 mi ESE 3.5 mph - N/A   Overcast
8:56 AM 48.2 °F 46.4 °F 93% 29.85 in 10.0 mi SE 4.6 mph - N/A   Overcast
9:16 AM 50.0 °F 46.4 °F 87% 29.85 in 10.0 mi ESE 3.5 mph - N/A   Overcast
9:36 AM 50.0 °F 46.4 °F 87% 29.84 in 10.0 mi SE 3.5 mph - N/A   Overcast
9:56 AM 50.0 °F 46.4 °F 87% 29.84 in 10.0 mi ESE 5.8 mph - N/A   Overcast
10:16 AM 50.0 °F 46.4 °F 87% 29.84 in 10.0 mi Calm Calm - N/A   Overcast
10:36 AM 51.8 °F 48.2 °F 88% 29.83 in 10.0 mi SE 4.6 mph - N/A   Overcast
10:56 AM 51.8 °F 46.4 °F 82% 29.83 in 10.0 mi ESE 5.8 mph - N/A   Overcast
11:16 AM 51.8 °F 48.2 °F 88% 29.83 in 10.0 mi SE 4.6 mph - N/A   Overcast
11:36 AM 51.8 °F 48.2 °F 88% 29.83 in 10.0 mi East 4.6 mph - N/A   Overcast
11:56 AM 51.8 °F 48.2 °F 88% 29.82 in 10.0 mi East 8.1 mph - N/A   Mostly Cloudy
12:16 PM 51.8 °F 48.2 °F 88% 29.82 in 10.0 mi East 5.8 mph - N/A   Overcast
12:36 PM 51.8 °F 48.2 °F 88% 29.81 in 10.0 mi ENE 5.8 mph - N/A   Overcast
12:56 PM 53.6 °F 46.4 °F 77% 29.81 in 10.0 mi East 4.6 mph - N/A   Mostly Cloudy
1:16 PM 53.6 °F 48.2 °F 82% 29.80 in 10.0 mi ENE 5.8 mph - N/A   Overcast
1:36 PM 53.6 °F 48.2 °F 82% 29.80 in 10.0 mi NE 4.6 mph - N/A   Overcast
1:56 PM 53.6 °F 48.2 °F 82% 29.79 in 10.0 mi NE 4.6 mph - N/A   Overcast
2:16 PM 53.6 °F 48.2 °F 82% 29.78 in 10.0 mi ENE 5.8 mph - N/A   Mostly Cloudy
2:36 PM 55.4 °F 48.2 °F 77% 29.78 in 10.0 mi East 4.6 mph - N/A   Mostly Cloudy
2:56 PM 55.4 °F 48.2 °F 77% 29.78 in 10.0 mi East 3.5 mph - N/A   Mostly Cloudy
3:16 PM 55.4 °F 48.2 °F 77% 29.77 in 10.0 mi NE 3.5 mph - N/A   Mostly Cloudy
3:36 PM 53.6 °F 48.2 °F 82% 29.77 in 10.0 mi Calm Calm - N/A   Overcast
3:56 PM 53.6 °F 48.2 °F 82% 29.77 in 10.0 mi Calm Calm - N/A   Overcast
4:16 PM 53.6 °F 48.2 °F 82% 29.77 in 10.0 mi Calm Calm - N/A   Overcast
4:36 PM 53.6 °F 48.2 °F 82% 29.76 in 10.0 mi Calm Calm - N/A   Overcast
4:56 PM 53.6 °F 50.0 °F 88% 29.75 in 10.0 mi NNE 4.6 mph - N/A   Overcast
5:16 PM 55.4 °F 48.2 °F 77% 29.75 in 10.0 mi Calm Calm - N/A   Overcast
5:36 PM 57.2 °F 48.2 °F 72% 29.74 in 10.0 mi NNE 3.5 mph - N/A   Mostly Cloudy
5:56 PM 57.2 °F 48.2 °F 72% 29.74 in 10.0 mi Calm Calm - N/A   Partly Cloudy
6:16 PM 57.2 °F 48.2 °F 72% 29.73 in 10.0 mi Calm Calm - N/A   Scattered Clouds
6:36 PM 57.2 °F 46.4 °F 67% 29.73 in 10.0 mi Calm Calm - N/A   Overcast
6:56 PM 59.0 °F 48.2 °F 67% 29.72 in 10.0 mi North 3.5 mph - N/A   Mostly Cloudy
7:16 PM 60.8 °F 46.4 °F 59% 29.72 in 10.0 mi Calm Calm - N/A   Mostly Cloudy
7:36 PM 60.8 °F 48.2 °F 63% 29.72 in 10.0 mi Calm Calm - N/A   Overcast
7:56 PM 60.8 °F 48.2 °F 63% 29.72 in 10.0 mi Calm Calm - N/A   Overcast
8:16 PM 59.0 °F 48.2 °F 67% 29.72 in 10.0 mi Calm Calm - N/A   Overcast
8:36 PM 59.0 °F 48.2 °F 67% 29.72 in 10.0 mi Calm Calm - N/A   Overcast
8:56 PM 59.0 °F 48.2 °F 67% 29.72 in 10.0 mi Calm Calm - N/A   Overcast
9:16 PM 59.0 °F 50.0 °F 72% 29.72 in 10.0 mi SE 4.6 mph - N/A   Overcast
9:36 PM 59.0 °F 48.2 °F 67% 29.72 in 10.0 mi SE 4.6 mph - N/A   Overcast
9:56 PM 57.2 °F 50.0 °F 77% 29.72 in 10.0 mi SE 3.5 mph - N/A   Mostly Cloudy
10:16 PM 57.2 °F 51.8 °F 82% 29.72 in 10.0 mi SSE 4.6 mph - N/A   Overcast
10:36 PM 57.2 °F 50.0 °F 77% 29.72 in 10.0 mi ESE 3.5 mph - N/A   Overcast
10:56 PM 57.2 °F 51.8 °F 82% 29.72 in 10.0 mi ESE 5.8 mph - N/A   Mostly Cloudy
11:16 PM 55.4 °F 51.8 °F 88% 29.73 in 10.0 mi ESE 5.8 mph - N/A   Overcast
11:36 PM 55.4 °F 51.8 °F 88% 29.72 in 10.0 mi ESE 6.9 mph - N/A   Overcast
11:56 PM 55.4 °F 51.8 °F 88% 29.72 in 10.0 mi ESE 5.8 mph - N/A   Overcast